owner,sensor,date,latitude,longitude,vertical_datum,direction_of_sea_water_velocity,sea_water_speed,upward_sea_water_velocity,qcFlag 
TABS,ioos:station:wmo:42044:1,2006-07-01T00:00:00Z,26.1914,-97.0507,2.0,75.69267634,1.537693077,-99999.0,'11133222,11111222,99999999' 
TABS,ioos:station:wmo:42044:1,2006-07-01T00:30:00Z,26.1914,-97.0507,2.0,12.79758647,3.701958941,-99999.0,'11133222,11111222,99999999' 
TABS,ioos:station:wmo:42044:1,2006-07-01T01:00:00Z,26.1914,-97.0507,2.0,64.92816122,3.775764823,-99999.0,'11133222,11111222,99999999' 
TABS,ioos:station:wmo:42044:1,2006-07-01T01:30:00Z,26.1914,-97.0507,2.0,63.92055564,2.63865496,-99999.0,'11133222,11111222,99999999' 
TABS,ioos:station:wmo:42044:1,2006-07-01T02:00:00Z,26.1914,-97.0507,2.0,52.20614538,1.24016128,-99999.0,'11133222,11111222,99999999' 
TABS,ioos:station:wmo:42044:1,2006-07-01T02:30:00Z,26.1914,-97.0507,2.0,67.30934767,3.110771608,-99999.0,'11133222,11111222,99999999' 
TABS,ioos:station:wmo:42044:1,2006-07-01T03:00:00Z,26.1914,-97.0507,2.0,48.19963746,1.140219277,-99999.0,'11133222,11111222,99999999' 
TABS,ioos:station:wmo:42044:1,2006-07-01T03:30:00Z,26.1914,-97.0507,2.0,72.69951326,1.916715941,-99999.0,'11133222,11111222,99999999' 
TABS,ioos:station:wmo:42044:1,2006-07-01T04:00:00Z,26.1914,-97.0507,2.0,35.93168757,2.198294794,-99999.0,'11133222,11111222,99999999' 
TABS,ioos:station:wmo:42044:1,2006-07-01T04:30:00Z,26.1914,-97.0507,2.0,32.76053401,1.367515996,-99999.0,'11133222,11111222,99999999' 
TABS,ioos:station:wmo:42044:1,2006-07-01T05:00:00Z,26.1914,-97.0507,2.0,7.696244184,0.373363094,-99999.0,'11133222,11111222,99999999' 
TABS,ioos:station:wmo:42044:1,2006-07-01T05:30:00Z,26.1914,-97.0507,2.0,88.61128666,3.300969555,-99999.0,'11133222,11111222,99999999' 
TABS,ioos:station:wmo:42044:1,2006-07-01T06:00:00Z,26.1914,-97.0507,2.0,202.8333903,0.206155281,-99999.0,'11133222,11111222,99999999' 
TABS,ioos:station:wmo:42044:1,2006-07-01T06:30:00Z,26.1914,-97.0507,2.0,23.59014547,2.498819721,-99999.0,'11133222,11111222,99999999' 
TABS,ioos:station:wmo:42044:1,2006-07-01T07:00:00Z,26.1914,-97.0507,2.0,7.085366171,1.783619915,-99999.0,'11133222,11111222,99999999' 
TABS,ioos:station:wmo:42044:1,2006-07-01T07:30:00Z,26.1914,-97.0507,2.0,119.6497942,1.495860956,-99999.0,'11133222,11111222,99999999' 
TABS,ioos:station:wmo:42044:1,2006-07-01T08:00:00Z,26.1914,-97.0507,2.0,4.3088653,1.464137972,-99999.0,'11133222,11111222,99999999' 
TABS,ioos:station:wmo:42044:1,2006-07-01T08:30:00Z,26.1914,-97.0507,2.0,81.24298615,4.006706877,-99999.0,'11133222,11111222,99999999' 
TABS,ioos:station:wmo:42044:1,2006-07-01T09:00:00Z,26.1914,-97.0507,2.0,59.74363359,2.639564358,-99999.0,'11133222,11111222,99999999' 
TABS,ioos:station:wmo:42044:1,2006-07-01T09:30:00Z,26.1914,-97.0507,2.0,85.5587692,2.066204249,-99999.0,'11133222,11111222,99999999' 
TABS,ioos:station:wmo:42044:1,2006-07-01T10:00:00Z,26.1914,-97.0507,2.0,359.8085869,2.990016722,-99999.0,'11133222,11144222,99999999' 
TABS,ioos:station:wmo:42044:1,2006-07-01T10:30:00Z,26.1914,-97.0507,2.0,356.5435994,2.985431292,-99999.0,'11133222,11111222,99999999' 
TABS,ioos:station:wmo:42044:1,2006-07-01T11:00:00Z,26.1914,-97.0507,2.0,6.911421416,4.321400236,-99999.0,'11133222,11111222,99999999' 
TABS,ioos:station:wmo:42044:1,2006-07-01T11:30:00Z,26.1914,-97.0507,2.0,41.83622901,2.818581203,-99999.0,'11133222,11111222,99999999' 
TABS,ioos:station:wmo:42044:1,2006-07-01T12:00:00Z,26.1914,-97.0507,2.0,54.19513073,4.734817842,-99999.0,'11133222,11111222,99999999' 
TABS,ioos:station:wmo:42044:1,2006-07-01T12:30:00Z,26.1914,-97.0507,2.0,62.89310784,5.201326754,-99999.0,'11133222,11111222,99999999' 
TABS,ioos:station:wmo:42044:1,2006-07-01T13:00:00Z,26.1914,-97.0507,2.0,83.21831232,5.589105474,-99999.0,'11133222,11111222,99999999' 
TABS,ioos:station:wmo:42044:1,2006-07-01T13:30:00Z,26.1914,-97.0507,2.0,71.68622655,5.983042704,-99999.0,'11133222,11111222,99999999' 
TABS,ioos:station:wmo:42044:1,2006-07-01T14:00:00Z,26.1914,-97.0507,2.0,64.75606003,6.401327987,-99999.0,'11133222,11111222,99999999' 
TABS,ioos:station:wmo:42044:1,2006-07-01T14:30:00Z,26.1914,-97.0507,2.0,107.7388471,7.548913829,-99999.0,'11133222,11111222,99999999' 
TABS,ioos:station:wmo:42044:1,2006-07-01T15:00:00Z,26.1914,-97.0507,2.0,84.32578685,6.270725636,-99999.0,'11133222,11111222,99999999' 
TABS,ioos:station:wmo:42044:1,2006-07-01T15:30:00Z,26.1914,-97.0507,2.0,96.88824217,7.50416551,-99999.0,'11133222,11111222,99999999' 
TABS,ioos:station:wmo:42044:1,2006-07-01T16:00:00Z,26.1914,-97.0507,2.0,101.4065259,6.97782201,-99999.0,'11133222,11111222,99999999' 
TABS,ioos:station:wmo:42044:1,2006-07-01T16:30:00Z,26.1914,-97.0507,2.0,124.8421996,6.896317858,-99999.0,'11133222,11111222,99999999' 
TABS,ioos:station:wmo:42044:1,2006-07-01T17:00:00Z,26.1914,-97.0507,2.0,105.9854957,7.843290126,-99999.0,'11133222,11111222,99999999' 
TABS,ioos:station:wmo:42044:1,2006-07-01T17:30:00Z,26.1914,-97.0507,2.0,116.2000536,5.617116698,-99999.0,'11133222,11111222,99999999' 
TABS,ioos:station:wmo:42044:1,2006-07-01T18:00:00Z,26.1914,-97.0507,2.0,118.5767422,4.076628509,-99999.0,'11133222,11111222,99999999' 
TABS,ioos:station:wmo:42044:1,2006-07-01T18:30:00Z,26.1914,-97.0507,2.0,114.5799269,3.485885827,-99999.0,'11133222,11111222,99999999' 
TABS,ioos:station:wmo:42044:1,2006-07-01T19:00:00Z,26.1914,-97.0507,2.0,295.8213525,1.033150521,-99999.0,'11133222,11111222,99999999' 
TABS,ioos:station:wmo:42044:1,2006-07-01T19:30:00Z,26.1914,-97.0507,2.0,240.1537169,0.703278039,-99999.0,'11133222,11111222,99999999' 
TABS,ioos:station:wmo:42044:1,2006-07-01T20:00:00Z,26.1914,-97.0507,2.0,39.89795191,0.795110055,-99999.0,'11133222,11111222,99999999' 
TABS,ioos:station:wmo:42044:1,2006-07-01T20:30:00Z,26.1914,-97.0507,2.0,148.0242606,2.039436197,-99999.0,'11133222,11111222,99999999' 
TABS,ioos:station:wmo:42044:1,2006-07-01T21:00:00Z,26.1914,-97.0507,2.0,342.7110649,1.581455026,-99999.0,'11133222,11111222,99999999' 
TABS,ioos:station:wmo:42044:1,2006-07-01T21:30:00Z,26.1914,-97.0507,2.0,326.8889459,0.823771813,-99999.0,'11133222,11111222,99999999' 
TABS,ioos:station:wmo:42044:1,2006-07-01T22:00:00Z,26.1914,-97.0507,2.0,280.7661513,1.445441109,-99999.0,'11133222,11111222,99999999' 
TABS,ioos:station:wmo:42044:1,2006-07-01T22:30:00Z,26.1914,-97.0507,2.0,49.41814386,3.212740263,-99999.0,'11133222,11111222,99999999' 
TABS,ioos:station:wmo:42044:1,2006-07-01T23:00:00Z,26.1914,-97.0507,2.0,77.70476233,2.394932149,-99999.0,'11133222,11111222,99999999' 
TABS,ioos:station:wmo:42044:1,2006-07-01T23:30:00Z,26.1914,-97.0507,2.0,67.66184603,2.973112847,-99999.0,'11133222,11111222,99999999' 
TABS,ioos:station:wmo:42044:1,2006-07-02T00:00:00Z,26.1914,-97.0507,2.0,104.0362106,1.3193938,-99999.0,'11133222,11111222,99999999' 
TABS,ioos:station:wmo:42044:1,2006-07-02T00:30:00Z,26.1914,-97.0507,2.0,44.14500983,2.369071548,-99999.0,'11133222,11111222,99999999' 
TABS,ioos:station:wmo:42044:1,2006-07-02T01:00:00Z,26.1914,-97.0507,2.0,348.024106,0.337342556,-99999.0,'11133222,11111222,99999999' 
TABS,ioos:station:wmo:42044:1,2006-07-02T01:30:00Z,26.1914,-97.0507,2.0,93.89068994,3.979170768,-99999.0,'11133222,11111222,99999999' 
TABS,ioos:station:wmo:42044:1,2006-07-02T02:00:00Z,26.1914,-97.0507,2.0,59.89876582,0.797558775,-99999.0,'11133222,11111222,99999999' 
TABS,ioos:station:wmo:42044:1,2006-07-02T02:30:00Z,26.1914,-97.0507,2.0,136.041519,0.777946014,-99999.0,'11133222,11111222,99999999' 
TABS,ioos:station:wmo:42044:1,2006-07-02T03:00:00Z,26.1914,-97.0507,2.0,126.4200021,2.038062806,-99999.0,'11133222,11111222,99999999' 
TABS,ioos:station:wmo:42044:1,2006-07-02T03:30:00Z,26.1914,-97.0507,2.0,170.4496936,5.364345254,-99999.0,'11133222,11111222,99999999' 
TABS,ioos:station:wmo:42044:1,2006-07-02T04:00:00Z,26.1914,-97.0507,2.0,167.702976,4.554492288,-99999.0,'11133222,11111222,99999999' 
TABS,ioos:station:wmo:42044:1,2006-07-02T04:30:00Z,26.1914,-97.0507,2.0,178.3847387,5.322114242,-99999.0,'11133222,11111222,99999999' 
TABS,ioos:station:wmo:42044:1,2006-07-02T05:00:00Z,26.1914,-97.0507,2.0,113.1264663,1.043886967,-99999.0,'11133222,11111222,99999999' 
TABS,ioos:station:wmo:42044:1,2006-07-02T05:30:00Z,26.1914,-97.0507,2.0,118.6508444,5.652052724,-99999.0,'11133222,11111222,99999999' 
TABS,ioos:station:wmo:42044:1,2006-07-02T06:00:00Z,26.1914,-97.0507,2.0,134.6734274,4.963970185,-99999.0,'11133222,11111222,99999999' 
TABS,ioos:station:wmo:42044:1,2006-07-02T06:30:00Z,26.1914,-97.0507,2.0,138.5762208,6.348039067,-99999.0,'11133222,11111222,99999999' 
TABS,ioos:station:wmo:42044:1,2006-07-02T07:00:00Z,26.1914,-97.0507,2.0,116.8766577,4.932838939,-99999.0,'11133222,11111222,99999999' 
TABS,ioos:station:wmo:42044:1,2006-07-02T07:30:00Z,26.1914,-97.0507,2.0,41.64770582,3.385764315,-99999.0,'11133222,11111222,99999999' 
TABS,ioos:station:wmo:42044:1,2006-07-02T08:00:00Z,26.1914,-97.0507,2.0,15.94556907,0.582408791,-99999.0,'11133222,11111222,99999999' 
TABS,ioos:station:wmo:42044:1,2006-07-02T08:30:00Z,26.1914,-97.0507,2.0,68.36439507,1.925668715,-99999.0,'11133222,11111222,99999999' 
TABS,ioos:station:wmo:42044:1,2006-07-02T09:00:00Z,26.1914,-97.0507,2.0,10.98083479,1.364990842,-99999.0,'11133222,11111222,99999999' 
TABS,ioos:station:wmo:42044:1,2006-07-02T09:30:00Z,26.1914,-97.0507,2.0,336.862627,2.468562335,-99999.0,'11133222,11111222,99999999' 
TABS,ioos:station:wmo:42044:1,2006-07-02T10:00:00Z,26.1914,-97.0507,2.0,26.56519952,1.766493702,-99999.0,'11133222,11111222,99999999' 
TABS,ioos:station:wmo:42044:1,2006-07-02T10:30:00Z,26.1914,-97.0507,2.0,4.024429517,1.994918545,-99999.0,'11133222,11111222,99999999' 
TABS,ioos:station:wmo:42044:1,2006-07-02T11:00:00Z,26.1914,-97.0507,2.0,20.88432198,4.291969245,-99999.0,'11133222,11111222,99999999' 
TABS,ioos:station:wmo:42044:1,2006-07-02T11:30:00Z,26.1914,-97.0507,2.0,14.98909536,3.209189929,-99999.0,'11133222,11111222,99999999' 
TABS,ioos:station:wmo:42044:1,2006-07-02T12:00:00Z,26.1914,-97.0507,2.0,3.012990918,2.853944639,-99999.0,'11133222,11111222,99999999' 
TABS,ioos:station:wmo:42044:1,2006-07-02T12:30:00Z,26.1914,-97.0507,2.0,10.21926097,2.987390165,-99999.0,'11133222,11111222,99999999' 
TABS,ioos:station:wmo:42044:1,2006-07-02T13:00:00Z,26.1914,-97.0507,2.0,14.95374024,3.332866634,-99999.0,'11133222,11111222,99999999' 
TABS,ioos:station:wmo:42044:1,2006-07-02T13:30:00Z,26.1914,-97.0507,2.0,32.4383604,2.665970743,-99999.0,'11133222,11111222,99999999' 
TABS,ioos:station:wmo:42044:1,2006-07-02T14:00:00Z,26.1914,-97.0507,2.0,45.08731315,4.645696934,-99999.0,'11133222,11111222,99999999' 
TABS,ioos:station:wmo:42044:1,2006-07-02T14:30:00Z,26.1914,-97.0507,2.0,89.24615343,3.800328933,-99999.0,'11133222,11111222,99999999' 
TABS,ioos:station:wmo:42044:1,2006-07-02T15:00:00Z,26.1914,-97.0507,2.0,106.1035461,2.487609294,-99999.0,'11133222,11111222,99999999' 
TABS,ioos:station:wmo:42044:1,2006-07-02T15:30:00Z,26.1914,-97.0507,2.0,101.442596,4.234158712,-99999.0,'11133222,11111222,99999999' 
TABS,ioos:station:wmo:42044:1,2006-07-02T16:00:00Z,26.1914,-97.0507,2.0,136.7297743,4.216277979,-99999.0,'11133222,11111222,99999999' 
TABS,ioos:station:wmo:42044:1,2006-07-02T16:30:00Z,26.1914,-97.0507,2.0,111.4418355,3.255303365,-99999.0,'11133222,11111222,99999999' 
TABS,ioos:station:wmo:42044:1,2006-07-02T17:00:00Z,26.1914,-97.0507,2.0,87.68961318,3.472823059,-99999.0,'11133222,11111222,99999999' 
TABS,ioos:station:wmo:42044:1,2006-07-02T17:30:00Z,26.1914,-97.0507,2.0,89.56152148,3.920114794,-99999.0,'11133222,11111222,99999999' 
TABS,ioos:station:wmo:42044:1,2006-07-02T18:00:00Z,26.1914,-97.0507,2.0,124.0255377,3.788667312,-99999.0,'11133222,11111222,99999999' 
TABS,ioos:station:wmo:42044:1,2006-07-02T18:30:00Z,26.1914,-97.0507,2.0,121.2805816,3.100741847,-99999.0,'11133222,11111222,99999999' 
TABS,ioos:station:wmo:42044:1,2006-07-02T19:00:00Z,26.1914,-97.0507,2.0,177.4119171,3.543613974,-99999.0,'11133222,11111222,99999999' 
TABS,ioos:station:wmo:42044:1,2006-07-02T19:30:00Z,26.1914,-97.0507,2.0,184.9556866,7.176830777,-99999.0,'11133222,11111222,99999999' 
TABS,ioos:station:wmo:42044:1,2006-07-02T20:00:00Z,26.1914,-97.0507,2.0,196.7138844,3.68571567,-99999.0,'11133222,11111222,99999999' 
TABS,ioos:station:wmo:42044:1,2006-07-02T20:30:00Z,26.1914,-97.0507,2.0,249.791058,5.210767698,-99999.0,'11133222,11111222,99999999' 
TABS,ioos:station:wmo:42044:1,2006-07-02T21:00:00Z,26.1914,-97.0507,2.0,256.0179617,5.09082508,-99999.0,'11133222,11111222,99999999' 
TABS,ioos:station:wmo:42044:1,2006-07-02T21:30:00Z,26.1914,-97.0507,2.0,274.0073389,4.150144576,-99999.0,'11133222,11111222,99999999' 
TABS,ioos:station:wmo:42044:1,2006-07-02T22:00:00Z,26.1914,-97.0507,2.0,265.9994027,4.300476718,-99999.0,'11133222,11111222,99999999' 
TABS,ioos:station:wmo:42044:1,2006-07-02T22:30:00Z,26.1914,-97.0507,2.0,286.2182679,4.332401182,-99999.0,'11133222,11111222,99999999' 
TABS,ioos:station:wmo:42044:1,2006-07-02T23:00:00Z,26.1914,-97.0507,2.0,321.8908479,4.715103392,-99999.0,'11133222,11111222,99999999' 
TABS,ioos:station:wmo:42044:1,2006-07-02T23:30:00Z,26.1914,-97.0507,2.0,306.3690741,7.774297396,-99999.0,'11133222,11111222,99999999' 
TABS,ioos:station:wmo:42044:1,2006-07-03T00:00:00Z,26.1914,-97.0507,2.0,308.6216207,4.646170466,-99999.0,'11133222,11111222,99999999' 
TABS,ioos:station:wmo:42044:1,2006-07-03T00:30:00Z,26.1914,-97.0507,2.0,302.2589792,5.995406575,-99999.0,'11133222,11111222,99999999' 
TABS,ioos:station:wmo:42044:1,2006-07-03T01:00:00Z,26.1914,-97.0507,2.0,324.3506375,5.353213988,-99999.0,'11133222,11111222,99999999' 
TABS,ioos:station:wmo:42044:1,2006-07-03T01:30:00Z,26.1914,-97.0507,2.0,323.4624565,3.796063751,-99999.0,'11133222,11111222,99999999' 
TABS,ioos:station:wmo:42044:1,2006-07-03T02:00:00Z,26.1914,-97.0507,2.0,351.7567828,2.859545418,-99999.0,'11133222,11111222,99999999' 
TABS,ioos:station:wmo:42044:1,2006-07-03T02:30:00Z,26.1914,-97.0507,2.0,6.340387378,4.074923312,-99999.0,'11133222,11111222,99999999' 
TABS,ioos:station:wmo:42044:1,2006-07-03T03:00:00Z,26.1914,-97.0507,2.0,42.18054227,3.306191162,-99999.0,'11133222,11111222,99999999' 
TABS,ioos:station:wmo:42044:1,2006-07-03T03:30:00Z,26.1914,-97.0507,2.0,51.78473875,2.214610575,-99999.0,'11133222,11111222,99999999' 
TABS,ioos:station:wmo:42044:1,2006-07-03T04:00:00Z,26.1914,-97.0507,2.0,50.01701453,3.719489212,-99999.0,'11133222,11111222,99999999' 
TABS,ioos:station:wmo:42044:1,2006-07-03T04:30:00Z,26.1914,-97.0507,2.0,44.57317091,4.744818226,-99999.0,'11133222,11111222,99999999' 
TABS,ioos:station:wmo:42044:1,2006-07-03T05:00:00Z,26.1914,-97.0507,2.0,53.18512206,2.086000959,-99999.0,'11133222,11111222,99999999' 
TABS,ioos:station:wmo:42044:1,2006-07-03T05:30:00Z,26.1914,-97.0507,2.0,86.35130493,3.457007376,-99999.0,'11133222,11111222,99999999' 
TABS,ioos:station:wmo:42044:1,2006-07-03T06:00:00Z,26.1914,-97.0507,2.0,56.17897513,4.850865902,-99999.0,'11133222,11111222,99999999' 
TABS,ioos:station:wmo:42044:1,2006-07-03T06:30:00Z,26.1914,-97.0507,2.0,35.18755595,4.563967572,-99999.0,'11133222,11111222,99999999' 
TABS,ioos:station:wmo:42044:1,2006-07-03T07:00:00Z,26.1914,-97.0507,2.0,48.88207304,3.968904131,-99999.0,'11133222,11111222,99999999' 
TABS,ioos:station:wmo:42044:1,2006-07-03T07:30:00Z,26.1914,-97.0507,2.0,37.87510554,4.332666615,-99999.0,'11133222,11111222,99999999' 
TABS,ioos:station:wmo:42044:1,2006-07-03T08:00:00Z,26.1914,-97.0507,2.0,33.62822449,5.128206314,-99999.0,'11133222,11111222,99999999' 
TABS,ioos:station:wmo:42044:1,2006-07-03T08:30:00Z,26.1914,-97.0507,2.0,333.6178849,4.20830132,-99999.0,'11133222,11111222,99999999' 
TABS,ioos:station:wmo:42044:1,2006-07-03T09:00:00Z,26.1914,-97.0507,2.0,325.7247391,5.699842103,-99999.0,'11133222,11111222,99999999' 
TABS,ioos:station:wmo:42044:1,2006-07-03T09:30:00Z,26.1914,-97.0507,2.0,16.85298997,8.933677854,-99999.0,'11133222,11111222,99999999' 
TABS,ioos:station:wmo:42044:1,2006-07-03T10:00:00Z,26.1914,-97.0507,2.0,12.16893273,8.11227465,-99999.0,'11133222,11111222,99999999' 
TABS,ioos:station:wmo:42044:1,2006-07-03T10:30:00Z,26.1914,-97.0507,2.0,16.81662807,5.150242713,-99999.0,'11133222,11111222,99999999' 
TABS,ioos:station:wmo:42044:1,2006-07-03T11:00:00Z,26.1914,-97.0507,2.0,17.67759785,4.544590191,-99999.0,'11133222,11111222,99999999' 
TABS,ioos:station:wmo:42044:1,2006-07-03T11:30:00Z,26.1914,-97.0507,2.0,37.10608266,10.19408652,-99999.0,'11111222,11111222,99999999' 
TABS,ioos:station:wmo:42044:1,2006-07-03T12:00:00Z,26.1914,-97.0507,2.0,43.38482096,6.522116221,-99999.0,'11133222,11111222,99999999' 
TABS,ioos:station:wmo:42044:1,2006-07-03T12:30:00Z,26.1914,-97.0507,2.0,20.75095752,8.608426105,-99999.0,'11133222,11111222,99999999' 
TABS,ioos:station:wmo:42044:1,2006-07-03T13:00:00Z,26.1914,-97.0507,2.0,39.73722674,10.71541413,-99999.0,'11111222,11111222,99999999' 
TABS,ioos:station:wmo:42044:1,2006-07-03T13:30:00Z,26.1914,-97.0507,2.0,22.09731124,10.79275683,-99999.0,'11111222,11111222,99999999' 
TABS,ioos:station:wmo:42044:1,2006-07-03T14:00:00Z,26.1914,-97.0507,2.0,22.83912525,10.46007648,-99999.0,'11111222,11111222,99999999' 
TABS,ioos:station:wmo:42044:1,2006-07-03T14:30:00Z,26.1914,-97.0507,2.0,23.42884848,11.77040356,-99999.0,'11111222,11111222,99999999' 
TABS,ioos:station:wmo:42044:1,2006-07-03T15:00:00Z,26.1914,-97.0507,2.0,35.66558539,11.9886488,-99999.0,'11111222,11111222,99999999' 
TABS,ioos:station:wmo:42044:1,2006-07-03T15:30:00Z,26.1914,-97.0507,2.0,34.70568984,13.92793596,-99999.0,'11111222,11111222,99999999' 
TABS,ioos:station:wmo:42044:1,2006-07-03T16:00:00Z,26.1914,-97.0507,2.0,42.32926871,13.20188244,-99999.0,'11111222,11111222,99999999' 
TABS,ioos:station:wmo:42044:1,2006-07-03T16:30:00Z,26.1914,-97.0507,2.0,37.46630508,13.64473891,-99999.0,'11111222,11111222,99999999' 
TABS,ioos:station:wmo:42044:1,2006-07-03T17:00:00Z,26.1914,-97.0507,2.0,52.99124219,11.54603395,-99999.0,'11111222,11111222,99999999' 
TABS,ioos:station:wmo:42044:1,2006-07-03T17:30:00Z,26.1914,-97.0507,2.0,43.93768294,14.87301247,-99999.0,'11111222,11111222,99999999' 
TABS,ioos:station:wmo:42044:1,2006-07-03T18:00:00Z,26.1914,-97.0507,2.0,40.59675652,13.35423903,-99999.0,'11111222,11111222,99999999' 
TABS,ioos:station:wmo:42044:1,2006-07-03T18:30:00Z,26.1914,-97.0507,2.0,48.28418941,14.44162387,-99999.0,'11111222,11111222,99999999' 
TABS,ioos:station:wmo:42044:1,2006-07-03T19:00:00Z,26.1914,-97.0507,2.0,46.39894663,11.87586207,-99999.0,'11111222,11111222,99999999' 
TABS,ioos:station:wmo:42044:1,2006-07-03T19:30:00Z,26.1914,-97.0507,2.0,42.31584364,12.83392769,-99999.0,'11111222,11111222,99999999' 
TABS,ioos:station:wmo:42044:1,2006-07-03T20:00:00Z,26.1914,-97.0507,2.0,33.14498478,13.69894156,-99999.0,'11111222,11111222,99999999' 
TABS,ioos:station:wmo:42044:1,2006-07-03T20:30:00Z,26.1914,-97.0507,2.0,37.94888976,11.57805251,-99999.0,'11111222,11111222,99999999' 
TABS,ioos:station:wmo:42044:1,2006-07-03T21:00:00Z,26.1914,-97.0507,2.0,33.62156526,11.5766014,-99999.0,'11111222,11111222,99999999' 
TABS,ioos:station:wmo:42044:1,2006-07-03T21:30:00Z,26.1914,-97.0507,2.0,49.88386398,12.04332595,-99999.0,'11111222,11111222,99999999' 
TABS,ioos:station:wmo:42044:1,2006-07-03T22:00:00Z,26.1914,-97.0507,2.0,42.94422125,13.79746354,-99999.0,'11111222,11111222,99999999' 
TABS,ioos:station:wmo:42044:1,2006-07-03T22:30:00Z,26.1914,-97.0507,2.0,30.57936582,12.0103164,-99999.0,'11111222,11111222,99999999' 
TABS,ioos:station:wmo:42044:1,2006-07-03T23:00:00Z,26.1914,-97.0507,2.0,51.34764568,12.15188051,-99999.0,'11111222,11111222,99999999' 
TABS,ioos:station:wmo:42044:1,2006-07-03T23:30:00Z,26.1914,-97.0507,2.0,51.56578041,9.523549758,-99999.0,'11133222,11111222,99999999' 
TABS,ioos:station:wmo:42044:1,2006-07-04T00:00:00Z,26.1914,-97.0507,2.0,45.75066027,8.09706737,-99999.0,'11133222,11111222,99999999' 
TABS,ioos:station:wmo:42044:1,2006-07-04T00:30:00Z,26.1914,-97.0507,2.0,45.45392263,7.14200252,-99999.0,'11133222,11111222,99999999' 
TABS,ioos:station:wmo:42044:1,2006-07-04T01:00:00Z,26.1914,-97.0507,2.0,45.46496842,6.972302346,-99999.0,'11133222,11111222,99999999' 
TABS,ioos:station:wmo:42044:1,2006-07-04T01:30:00Z,26.1914,-97.0507,2.0,68.09942835,4.289568743,-99999.0,'11133222,11111222,99999999' 
TABS,ioos:station:wmo:42044:1,2006-07-04T02:00:00Z,26.1914,-97.0507,2.0,56.08067701,4.157511275,-99999.0,'11133222,11111222,99999999' 
TABS,ioos:station:wmo:42044:1,2006-07-04T02:30:00Z,26.1914,-97.0507,2.0,39.72271149,5.304573498,-99999.0,'11133222,11111222,99999999' 
TABS,ioos:station:wmo:42044:1,2006-07-04T03:00:00Z,26.1914,-97.0507,2.0,42.22583441,4.821047604,-99999.0,'11133222,11111222,99999999' 
TABS,ioos:station:wmo:42044:1,2006-07-04T03:30:00Z,26.1914,-97.0507,2.0,47.4712569,5.739973868,-99999.0,'11133222,11111222,99999999' 
TABS,ioos:station:wmo:42044:1,2006-07-04T04:00:00Z,26.1914,-97.0507,2.0,22.51231056,6.137703153,-99999.0,'11133222,11111222,99999999' 
TABS,ioos:station:wmo:42044:1,2006-07-04T04:30:00Z,26.1914,-97.0507,2.0,31.48117599,9.497978732,-99999.0,'11133222,11111222,99999999' 
TABS,ioos:station:wmo:42044:1,2006-07-04T05:00:00Z,26.1914,-97.0507,2.0,27.80959503,11.53188623,-99999.0,'11111222,11111222,99999999' 
TABS,ioos:station:wmo:42044:1,2006-07-04T05:30:00Z,26.1914,-97.0507,2.0,359.2526862,10.73091329,-99999.0,'11111222,11144222,99999999' 
TABS,ioos:station:wmo:42044:1,2006-07-04T06:00:00Z,26.1914,-97.0507,2.0,8.450889591,12.38446204,-99999.0,'11111222,11111222,99999999' 
TABS,ioos:station:wmo:42044:1,2006-07-04T06:30:00Z,26.1914,-97.0507,2.0,8.700186728,10.37942677,-99999.0,'11111222,11111222,99999999' 
TABS,ioos:station:wmo:42044:1,2006-07-04T07:00:00Z,26.1914,-97.0507,2.0,27.96481466,12.81649328,-99999.0,'11111222,11111222,99999999' 
TABS,ioos:station:wmo:42044:1,2006-07-04T07:30:00Z,26.1914,-97.0507,2.0,24.05984518,11.96993317,-99999.0,'11111222,11111222,99999999' 
TABS,ioos:station:wmo:42044:1,2006-07-04T08:00:00Z,26.1914,-97.0507,2.0,14.61074467,14.0338163,-99999.0,'11111222,11111222,99999999' 
TABS,ioos:station:wmo:42044:1,2006-07-04T08:30:00Z,26.1914,-97.0507,2.0,23.67268408,14.44551487,-99999.0,'11111222,11111222,99999999' 
TABS,ioos:station:wmo:42044:1,2006-07-04T09:00:00Z,26.1914,-97.0507,2.0,18.87609141,16.84595204,-99999.0,'11111222,11111222,99999999' 
TABS,ioos:station:wmo:42044:1,2006-07-04T09:30:00Z,26.1914,-97.0507,2.0,22.24752581,14.55338449,-99999.0,'11111222,11111222,99999999' 
TABS,ioos:station:wmo:42044:1,2006-07-04T10:00:00Z,26.1914,-97.0507,2.0,16.50588702,15.02933798,-99999.0,'11111222,11111222,99999999' 
TABS,ioos:station:wmo:42044:1,2006-07-04T10:30:00Z,26.1914,-97.0507,2.0,36.11202947,13.45517744,-99999.0,'11111222,11111222,99999999' 
TABS,ioos:station:wmo:42044:1,2006-07-04T11:00:00Z,26.1914,-97.0507,2.0,35.01544732,10.07327653,-99999.0,'11111222,11111222,99999999' 
TABS,ioos:station:wmo:42044:1,2006-07-04T11:30:00Z,26.1914,-97.0507,2.0,28.72388035,12.11019405,-99999.0,'11111222,11111222,99999999' 
TABS,ioos:station:wmo:42044:1,2006-07-04T12:00:00Z,26.1914,-97.0507,2.0,37.00509315,13.57403772,-99999.0,'11111222,11111222,99999999' 
TABS,ioos:station:wmo:42044:1,2006-07-04T12:30:00Z,26.1914,-97.0507,2.0,31.08350954,13.96516022,-99999.0,'11111222,11111222,99999999' 
TABS,ioos:station:wmo:42044:1,2006-07-04T13:00:00Z,26.1914,-97.0507,2.0,38.42996337,10.50589358,-99999.0,'11111222,11111222,99999999' 
TABS,ioos:station:wmo:42044:1,2006-07-04T13:30:00Z,26.1914,-97.0507,2.0,29.25704503,12.37911548,-99999.0,'11111222,11111222,99999999' 
TABS,ioos:station:wmo:42044:1,2006-07-04T14:00:00Z,26.1914,-97.0507,2.0,23.8027529,13.82602257,-99999.0,'11111222,11111222,99999999' 
TABS,ioos:station:wmo:42044:1,2006-07-04T14:30:00Z,26.1914,-97.0507,2.0,36.69731511,13.27006029,-99999.0,'11111222,11111222,99999999' 
TABS,ioos:station:wmo:42044:1,2006-07-04T15:00:00Z,26.1914,-97.0507,2.0,29.49844416,13.54595881,-99999.0,'11111222,11111222,99999999' 
TABS,ioos:station:wmo:42044:1,2006-07-04T15:30:00Z,26.1914,-97.0507,2.0,24.81393406,13.46294544,-99999.0,'11111222,11111222,99999999' 